User: anonymous   Login
Location: Unspecified
(0.0000°N, 0.0000°E)
Time: 19:47:51
(UTC+00:00)
Language:

Kosmos-2195 - Orbit

View from above orbital plane
View from above orbital plane
View from above satellite
View from above satellite

Ground track
Ground track

The orbit data is extracted from the following two-line orbital elements,

1 22006U 92036A   17268.96517234 +.00000027 +00000-0 +11859-4 0  9998
2 22006 082.9309 261.2393 0037586 159.2611 257.3473 13.74916003266271
Epoch (UTC): 25 September 2017 23:09:50
Eccentricity: 0.0037586
inclination: 82.9309°
perigee height: 954 km
apogee height: 1009 km
right ascension of ascending node: 261.2393°
argument of perigee: 159.2611°
revolutions per day: 13.74916003
mean anomaly at epoch: 257.3473°
orbit number at epoch: 26627

The dashed part of the orbit path shows where the satellite is in the earth's shadow,  

DLR